Regional Weather Roundup
Issued by NWS

Home | Current Version | Previous Version | Text Only | Print | Product List | Glossary Off
Versions: 1 2 3 4 5 6 7 8 9 10 11 12 13 14 15 16 17 18 19 20 21 22 23 24 25 26 27 28 29 30 31 32 33 34 35 36 37 38 39 40 41 42 43 44 45 46 47 48 49 50

000
ASUS43 KTOP 122308
RWRKS

WEATHER ROUNDUP FOR KANSAS
NATIONAL WEATHER SERVICE GOODLAND KS
600 PM CDT SAT JUL 12 2014

NOTE:  "FAIR" INDICATES FEW OR NO CLOUDS BELOW 12,000 FEET WITH NO
SIGNIFICANT WEATHER AND/OR OBSTRUCTIONS TO VISIBILITY.

KSZ001>006-013>018-027>032-041>047-130000-
NORTHWEST KANSAS

CITY           SKY/WX    TMP DP  RH WIND       PRES   REMARKS
GOODLAND       MOSUNNY   87  64  46 N13       30.12F
HAYS           PTSUNNY   97  59  28 S10G17    29.95F HX  96
HILL CITY      SUNNY     93  69  45 N16G23    29.99S HX  98
RUSSELL        SUNNY     94  67  41 S15       29.95F HX  97
$$

KSZ061>065-074>080-084>089-130000-
SOUTHWEST KANSAS

CITY           SKY/WX    TMP DP  RH WIND       PRES   REMARKS
DODGE CITY     SUNNY     93  59  31 S18       30.00F
ELKHART          N/A     94  57  28 S15         N/A
GARDEN CITY    MOSUNNY   94  61  33 S14       29.99F
GREAT BEND     SUNNY     93  64  38 S17       29.96F HX  95
LIBERAL        SUNNY     97  57  26 S16G24    30.04S HX  95
PRATT          SUNNY     91  61  35 SW15      30.02S
$$

KSZ066>073-081>083-090>101-130000-
SOUTHEAST KANSAS

CITY           SKY/WX    TMP DP  RH WIND       PRES   REMARKS
CHANUTE        MOSUNNY   91  67  44 SW12      30.03F
COFFEYVILLE    SUNNY     92  67  43 S12       30.02F HX  95
HUTCHINSON     SUNNY     94  64  37 SW15      29.99F HX  95
MEDICINE LODGE   N/A     94  63  35 S16       29.98F HX  95
NEWTON         MOSUNNY   93  64  38 S18       30.04S HX  95
PARSONS        SUNNY     92  70  48 S10       30.04F HX  97
WICHITA INTL   MOSUNNY   91  66  43 SW14      29.99F
WICHITA JABRA  SUNNY     91  66  43 S15G22    30.00F
WINFIELD       SUNNY     92  65  40 SW14      30.02F
$$

KSZ007>012-019>026-033>040-048>060-102>105-130000-
NORTHEAST KANSAS

CITY           SKY/WX    TMP DP  RH WIND       PRES   REMARKS
CONCORDIA      MOSUNNY   93  66  40 S9        29.94S HX  96
EMPORIA        MOSUNNY   92  65  40 SW17G25   30.00F
LAWRENCE       SUNNY     94  66  39 S14G23    29.97F HX  97
MANHATTAN      SUNNY     97  67  37 SW15      29.94F HX 101
MARYSVILLE     MOSUNNY   95  70  43 SW10      29.93F HX 101
OLATHE IND     SUNNY     93  67  42 S18       30.00F HX  96
OLATHE EXE     SUNNY     90  68  48 SW10G21   29.99F
SALINA         SUNNY     97  66  36 S17       29.96F HX 100
TOPEKA BILLARD MOSUNNY   95  66  38 SW15G21   29.96F HX  98
TOPEKA FORBES  SUNNY     94  67  41 SW15      29.97F HX  97
$$


USA.gov is the U.S. government's official web portal to all federal, state and local government web resources and services.